KC9UAW Weather Reports


Display with metric or nautical units.
time (UTC)temp
F
wind
direction
speed
MPH
gust
MPH
rain 1hr
in
rain 24hr
in
rain mn
in
humidity
%
barometer
mb
20260504173503 67 225 3.0 8.0 0.00 0.00 0.00 66 1005.7
20260504173004 67 192 5.0 8.0 0.00 0.00 0.00 65 1005.7
20260504172004 67 200 5.0 16.0 0.00 0.00 0.00 66 1006.2
20260504171504 67 185 5.0 16.0 0.00 0.00 0.00 65 1006.2
20260504170503 66 212 3.0 7.0 0.00 0.00 0.00 68 1006.8
20260504150504 71 204 5.0 10.0 0.00 0.00 0.00 56 1008.0
20260504141004 69 204 5.0 10.0 0.00 0.00 0.00 60 1007.9
20260504140504 69 172 4.0 10.0 0.00 0.00 0.00 62 1007.9
20260504130503 62 164 2.0 7.0 0.00 0.00 0.00 78 1008.7
20260504110504 57 225 1.0 3.0 0.00 0.00 0.00 82 1008.8
20260504100503 58 137 2.0 6.0 0.00 0.00 0.00 79 1008.5
20260504082004 60 94 2.0 5.0 0.00 0.00 0.00 73 1008.5
20260504081004 61 157 2.0 5.0 0.00 0.00 0.00 74 1008.5
20260504080503 61 47 2.0 5.0 0.00 0.00 0.00 74 1008.5
20260504050503 65 213 7.0 14.0 0.00 0.00 0.00 58 1008.1
20260504050003 65 208 7.0 13.0 0.00 0.00 0.00 58 1008.1
20260504045503 66 207 6.0 12.0 0.00 0.00 0.00 58 1008.5
20260504044504 66 199 6.0 14.0 0.00 0.00 0.00 56 1008.5
20260504043504 66 199 6.0 15.0 0.00 0.00 0.00 56 1009.0
20260504043004 66 208 6.0 15.0 0.00 0.00 0.00 56 1009.0
20260504042504 66 200 6.0 14.0 0.00 0.00 0.00 55 1009.2
20260504042004 66 216 6.0 14.0 0.00 0.00 0.00 55 1009.2
20260504041503 66 250 6.0 14.0 0.00 0.00 0.00 55 1009.2
20260504041004 66 243 5.0 14.0 0.00 0.00 0.00 56 1009.5
20260504040503 66 204 5.0 14.0 0.00 0.00 0.00 55 1009.5
20260504040004 66 232 6.0 13.0 0.00 0.00 0.00 56 1009.5
20260504035503 66 220 6.0 13.0 0.00 0.00 0.00 56 1009.6
20260504035004 66 203 7.0 12.0 0.00 0.00 0.00 55 1009.6
20260504034504 65 198 7.0 13.0 0.00 0.00 0.00 55 1009.6
20260504033504 65 208 6.0 13.0 0.00 0.00 0.00 55 1009.6
20260504033004 65 203 6.0 15.0 0.00 0.00 0.00 56 1009.6
20260504032504 65 208 6.0 15.0 0.00 0.00 0.00 55 1009.6
20260504032004 65 196 5.0 13.0 0.00 0.00 0.00 55 1009.6
20260504031503 65 206 5.0 9.0 0.00 0.00 0.00 56 1009.6
20260504031004 65 189 5.0 12.0 0.00 0.00 0.00 56 1009.6
20260504030004 65 198 5.0 10.0 0.00 0.00 0.00 56 1009.6
20260504025504 65 192 5.0 9.0 0.00 0.00 0.00 55 1009.6
20260504025004 65 196 5.0 9.0 0.00 0.00 0.00 55 1009.6
20260504024004 65 208 5.0 9.0 0.00 0.00 0.00 55 1009.6
20260504023503 65 190 5.0 9.0 0.00 0.00 0.00 54 1009.6
20260504022004 66 183 5.0 13.0 0.00 0.00 0.00 54 1009.5
20260504021504 66 203 5.0 13.0 0.00 0.00 0.00 52 1009.5
20260504021004 66 196 5.0 8.0 0.00 0.00 0.00 52 1009.3
20260504020504 66 207 5.0 8.0 0.00 0.00 0.00 51 1009.3
20260504015503 67 205 5.0 9.0 0.00 0.00 0.00 52 1009.3
20260504014503 67 197 5.0 10.0 0.00 0.00 0.00 51 1009.3
20260504013504 67 203 5.0 9.0 0.00 0.00 0.00 51 1009.2
20260504013004 67 168 5.0 9.0 0.00 0.00 0.00 50 1009.2
20260504012004 68 201 5.0 13.0 0.00 0.00 0.00 49 1009.1
20260504011004 68 192 5.0 10.0 0.00 0.00 0.00 48 1009.1
20260504010504 68 193 5.0 10.0 0.00 0.00 0.00 48 1009.1
20260504010003 69 191 5.0 10.0 0.00 0.00 0.00 49 1009.1
20260504005004 69 203 5.0 10.0 0.00 0.00 0.00 48 1009.1
20260504004004 70 203 5.0 9.0 0.00 0.00 0.00 45 1009.1
20260504003504 71 203 4.0 9.0 0.00 0.00 0.00 44 1009.1
20260504002503 72 176 3.0 10.0 0.00 0.00 0.00 44 1009.1
20260504002004 73 213 5.0 10.0 0.00 0.00 0.00 44 1009.1
20260504001504 73 199 5.0 10.0 0.00 0.00 0.00 42 1009.1
20260504001004 74 203 5.0 12.0 0.00 0.00 0.00 41 1009.2
20260504000504 74 198 5.0 12.0 0.00 0.00 0.00 40 1009.2
20260504000004 74 193 5.0 12.0 0.00 0.00 0.00 40 1009.2
20260503235004 75 213 5.0 9.0 0.00 0.00 0.00 39 1009.3
20260503234503 75 149 5.0 8.0 0.00 0.00 0.00 39 1009.3
20260503233503 75 211 6.0 13.0 0.00 0.00 0.00 37 1009.4
20260503233004 75 201 6.0 10.0 0.00 0.00 0.00 38 1009.4
20260503232503 75 208 6.0 13.0 0.00 0.00 0.00 38 1009.4
20260503232004 76 201 6.0 14.0 0.00 0.00 0.00 37 1009.4
20260503231503 76 212 6.0 14.0 0.00 0.00 0.00 37 1009.4
20260503231004 76 211 7.0 14.0 0.00 0.00 0.00 38 1009.6
20260503230503 76 211 7.0 15.0 0.00 0.00 0.00 37 1009.6
20260503230004 76 204 7.0 15.0 0.00 0.00 0.00 36 1009.6
20260503225503 76 220 7.0 15.0 0.00 0.00 0.00 36 1009.6
20260503225004 76 206 7.0 17.0 0.00 0.00 0.00 37 1009.6
20260503224503 76 208 7.0 17.0 0.00 0.00 0.00 36 1009.6
20260503224004 76 218 8.0 15.0 0.00 0.00 0.00 37 1009.9
20260503223504 76 209 7.0 20.0 0.00 0.00 0.00 35 1009.9
20260503223004 76 233 7.0 20.0 0.00 0.00 0.00 35 1009.9
20260503222503 76 208 7.0 17.0 0.00 0.00 0.00 37 1010.0
20260503222004 76 188 7.0 13.0 0.00 0.00 0.00 36 1010.0
20260503221004 76 204 6.0 16.0 0.00 0.00 0.00 35 1009.9
20260503220503 76 207 6.0 16.0 0.00 0.00 0.00 36 1009.9
20260503220004 76 218 8.0 14.0 0.00 0.00 0.00 39 1009.9
20260503215504 76 219 8.0 17.0 0.00 0.00 0.00 37 1009.9
20260503215004 76 204 8.0 17.0 0.00 0.00 0.00 35 1009.9
20260503214004 76 201 7.0 17.0 0.00 0.00 0.00 36 1010.1
20260503213504 76 204 7.0 17.0 0.00 0.00 0.00 36 1010.1
20260503212003 75 209 7.0 20.0 0.00 0.00 0.00 37 1010.3
20260503211504 75 221 7.0 18.0 0.00 0.00 0.00 38 1010.3
20260503211004 75 198 8.0 18.0 0.00 0.00 0.00 37 1010.7
20260503210005 75 194 8.0 18.0 0.00 0.00 0.00 39 1010.7
20260503205504 75 193 7.0 18.0 0.00 0.00 0.00 37 1011.0
20260503205004 75 213 6.0 18.0 0.00 0.00 0.00 37 1011.0
20260503204504 75 196 6.0 16.0 0.00 0.00 0.00 37 1011.0
20260503204004 74 238 7.0 16.0 0.00 0.00 0.00 41 1011.3
20260503202503 73 230 8.0 18.0 0.00 0.00 0.00 40 1011.5
20260503202004 73 208 8.0 23.0 0.00 0.00 0.00 39 1011.5
20260503201004 73 208 7.0 21.0 0.00 0.00 0.00 43 1012.0
20260503200004 72 211 8.0 17.0 0.00 0.00 0.00 41 1012.0
20260503195503 72 186 8.0 17.0 0.00 0.00 0.00 41 1012.4
20260503195005 72 223 8.0 17.0 0.00 0.00 0.00 42 1012.4
20260503194504 72 209 8.0 22.0 0.00 0.00 0.00 41 1012.4
20260503194004 72 202 8.0 22.0 0.00 0.00 0.00 40 1013.0
20260503193503 71 204 8.0 18.0 0.00 0.00 0.00 45 1013.0
20260503193004 71 198 8.0 18.0 0.00 0.00 0.00 42 1013.0
20260503192504 71 212 8.0 17.0 0.00 0.00 0.00 40 1013.3
20260503192004 71 199 7.0 17.0 0.00 0.00 0.00 44 1013.3
20260503191004 70 216 8.0 18.0 0.00 0.00 0.00 43 1013.9
20260503190003 70 204 7.0 18.0 0.00 0.00 0.00 42 1013.9
20260503185504 70 203 7.0 18.0 0.00 0.00 0.00 43 1014.0
20260503185004 69 216 8.0 16.0 0.00 0.00 0.00 44 1014.0
20260503184004 69 189 8.0 20.0 0.00 0.00 0.00 44 1014.5
20260503183503 69 178 8.0 17.0 0.00 0.00 0.00 44 1014.5
20260503183004 68 214 8.0 20.0 0.00 0.00 0.00 43 1014.5
20260503182503 68 197 7.0 20.0 0.00 0.00 0.00 45 1015.1
20260503182005 68 204 7.0 17.0 0.00 0.00 0.00 45 1015.1
20260503181505 68 204 7.0 17.0 0.00 0.00 0.00 43 1015.1
20260503181004 68 194 7.0 16.0 0.00 0.00 0.00 47 1015.7
20260503180504 67 195 7.0 16.0 0.00 0.00 0.00 49 1015.7